This demonstration page uses our WeatherBlox Daily Observations layout. Learn more.

Left ArrowRight Arrow

47.50024, -111.30081

Hourly Observations for January 13, 2018

Temp ( °F °C ) Dew Point ( °F °C ) Humidity (%) Winds ( mph kmh ) Pressure ( in mb ) Visibility ( mi km ) Precip ( " mm )
12:53 am 00:53 Mostly Clear 15 -9.4 10 -12.2 80 80 SW 12 19 30.42 1030 10 16 0.00 0.00
1:53 am 01:53 Clear 15 -9.4 11 -11.7 84 84 SSW 14 22 30.42 1030 10 16 0.00 0.00
2:53 am 02:53 Clear 25 -3.9 18 -7.8 75 75 SSW 16 26 30.40 1030 10 16 0.00 0.00
3:53 am 03:53 Mostly Cloudy 30 -1.1 22 -5.6 72 72 SW 16 26 30.38 1029 10 16 0.00 0.00
4:53 am 04:53 Mostly Cloudy 32 0 24 -4.4 73 73 SW 20 31 30.36 1028 10 16 0.00 0.00
5:53 am 05:53 Cloudy 35 1.7 27 -2.8 72 72 SW 18 30 30.36 1028 10 16 0.00 0.00
6:53 am 06:53 Cloudy 37 2.8 28 -2.2 70 70 SW 17 28 30.35 1028 10 16 0.00 0.00
7:53 am 07:53 Cloudy 37 2.8 28 -2.2 70 70 SW 14 22 30.35 1028 10 16 0.00 0.00
8:53 am 08:53 Cloudy 36 2.2 28 -2.2 73 73 SW 14 22 30.37 1029 10 16 0.00 0.00
9:53 am 09:53 Mostly Cloudy 36 2.2 28 -2.2 73 73 WSW 18 30 30.38 1029 10 16 0.00 0.00
10:53 am 10:53 Mostly Cloudy 37 2.8 29 -1.7 73 73 SW 16 26 30.40 1029 10 16 0.00 0.00
11:53 am 11:53 Sunny 38 3.3 29 -1.7 70 70 SW 14 22 30.38 1029 10 16 0.00 0.00
12:53 pm 12:53 Sunny 39 3.9 29 -1.7 67 67 WSW 15 24 30.36 1028 10 16 0.00 0.00
1:53 pm 13:53 Sunny 39 3.9 30 -1.1 70 70 SW 13 20 30.38 1029 10 16 0.00 0.00
2:53 pm 14:53 Sunny 39 3.9 30 -1.1 70 70 WSW 14 22 30.36 1028 10 16 0.00 0.00
3:53 pm 15:53 Sunny 38 3.3 30 -1.1 73 73 SW 10 17 30.37 1028 10 16 0.00 0.00
4:53 pm 16:53 Sunny 37 2.8 29 -1.7 73 73 SW 14 22 30.38 1029 10 16 0.00 0.00
5:53 pm 17:53 Clear 35 1.7 27 -2.8 72 72 SW 12 19 30.40 1030 10 16 0.00 0.00
6:53 pm 18:53 Clear 34 1.1 27 -2.8 76 76 SW 12 19 30.40 1030 10 16 0.00 0.00
7:53 pm 19:53 Clear 31 -0.6 25 -3.9 79 79 SW 12 19 30.42 1030 10 16 0.00 0.00
8:53 pm 20:53 Clear 31 -0.6 24 -4.4 76 76 SW 13 20 30.42 1030 10 16 0.00 0.00
9:53 pm 21:53 Clear 30 -1.1 24 -4.4 79 79 SW 14 22 30.44 1031 10 16 0.00 0.00
10:53 pm 22:53 Clear 30 -1.1 24 -4.4 79 79 SSW 14 22 30.43 1031 10 16 0.00 0.00
11:53 pm 23:53 Clear 31 -0.6 24 -4.4 76 76 SW 13 20 30.42 1030 10 16 0.00 0.00

Powered by AerisWeather